Flag for Greece Weather past 2 weeks in Iráklion, Crete, Greece

Now
81 °F

Passing clouds.


Feels Like: 82 °F
Forecast: 76 / 83 °F
Wind: 15 mph from Northwest

Location: Heraklion Airport

Current Time: Aug 30, 2014 at 1:40:11 PM

Latest Report: Aug 30, 2014 at 12:50 PM


Visibility: N/A

Pressure: 29.92 "Hg

Humidity: 54%

Dew point: 63 °F

Location of IráklionLocation

Historic Weather in Iráklion — Graph

°F

Iráklion temperature yesterday

Maximum temperature yesterday: 84 °F (at 1:50 PM)
Minimum temperature yesterday: 75 °F (at 2:50 AM)
Average temperature yesterday: 81 °F

Past Weeks' High & Low Weather Summary

 TemperatureHumidityPressure
High90 °F (Aug 15, 12:50 PM)89% (Aug 15, 8:50 PM)29.98 "Hg (Aug 15, 8:50 PM)
Low70 °F (Aug 21, 2:50 AM)12% (Aug 27, 2:50 AM)29.68 "Hg (Aug 17, 4:50 PM)
Average81 °F64%29.85 "Hg
* Reported Aug 15 12:50 PM — Aug 30 12:20 PM, Iráklion, Weather by CustomWeather, © 2014

Note: Actual official high and low records may vary slightly from our data, if they occured in-between our weather recording intervals... More about our weather records

Advertising

Iráklion weather history for previous 24 hours

 ConditionsComfort  
Time TempWeatherWind HumidityBarometerVisibility
12:20 PM
Aug 30
81 °FPassing clouds.16 mph54%29.92 "HgN/A
11:50 AM81 °FScattered clouds.17 mph58%29.92 "HgN/A
11:20 AM81 °FScattered clouds.17 mph58%29.92 "HgN/A
10:50 AM81 °FPassing clouds.18 mph58%29.92 "HgN/A
10:20 AM81 °FPassing clouds.20 mph62%29.92 "HgN/A
9:50 AM81 °FPassing clouds.20 mph58%29.92 "HgN/A
9:20 AM81 °FPassing clouds.20 mph54%29.92 "HgN/A
8:50 AM79 °FPassing clouds.17 mph61%29.92 "HgN/A
8:20 AM79 °FScattered clouds.20 mph65%29.92 "HgN/A
7:50 AM79 °FPassing clouds.20 mph61%29.89 "HgN/A
7:20 AM77 °FPassing clouds.14 mph69%29.89 "HgN/A
6:50 AM77 °FPassing clouds.14 mph69%29.89 "HgN/A
6:20 AM77 °FPassing clouds.14 mph69%29.89 "HgN/A
5:50 AM77 °FPassing clouds.14 mph69%29.89 "HgN/A
5:20 AM79 °FPassing clouds.18 mph70%29.89 "HgN/A
4:50 AM79 °FPassing clouds.18 mph70%29.89 "HgN/A
3:50 AM79 °FPassing clouds.20 mph58%29.89 "HgN/A
2:50 AM79 °FPassing clouds.20 mph70%29.89 "HgN/A
2:20 AM79 °FPassing clouds.18 mph70%29.89 "HgN/A
1:50 AM79 °FPassing clouds.18 mph70%29.89 "HgN/A
1:20 AM79 °FPassing clouds.15 mph70%29.89 "HgN/A
12:50 AM79 °FPassing clouds.15 mph70%29.89 "HgN/A
12:20 AM79 °FPassing clouds.17 mph70%29.89 "HgN/A
11:50 PM
Aug 29
79 °FPassing clouds.17 mph70%29.89 "HgN/A
9:50 PM79 °FPassing clouds.15 mph74%29.86 "HgN/A
8:50 PM79 °FScattered clouds.15 mph74%29.86 "HgN/A
8:20 PM79 °FScattered clouds.17 mph74%29.86 "HgN/A
7:50 PM79 °FScattered clouds.18 mph74%29.86 "HgN/A
7:20 PM82 °FScattered clouds.17 mph66%29.86 "HgN/A
6:50 PM82 °FScattered clouds.14 mph66%29.86 "HgN/A
5:50 PM82 °FScattered clouds.20 mph66%29.86 "HgN/A
5:20 PM82 °FScattered clouds.17 mph70%29.86 "HgN/A
4:50 PM82 °FScattered clouds.18 mph70%29.86 "HgN/A
4:20 PM84 °FScattered clouds.17 mph70%29.86 "HgN/A
3:50 PM84 °FScattered clouds.18 mph70%29.86 "HgN/A
3:20 PM84 °FScattered clouds.20 mph70%29.86 "HgN/A
2:50 PM84 °FScattered clouds.20 mph70%29.86 "HgN/A
2:20 PM84 °FScattered clouds.21 mph70%29.86 "HgN/A
1:50 PM84 °FScattered clouds.22 mph70%29.86 "HgN/A
1:20 PM82 °FScattered clouds.20 mph70%29.86 "HgN/A
Weather by CustomWeather, © 2014

See weather overviewHow to use our weather pages